COSMOS 1275 DEB, 12694

Orbit data source: Space-Track

COSMOS 1275 DEB, 12694 is space debris in LEO originally from a launch on Thu, 04 Jun 1981 UTC launched from the Plesetsk Missile And Space Complex (PKMTR). Debris objects in space refer to the collection of defunct objects orbiting the Earth. Examples of debris include non-operational satellites, rocket bodies, and fragments generated from explosions, collisions, or faulty payload assembly.

Loading next visibility...
Identifier
12694, 1981-053AN
Orbit
LEO
Last TLE update
23 hours ago
Origin
Manufacturer
Unknown
Mission
Spacecraft
Bus & Motor
Unknown
Mass
Unknown
Launch date (UTC)
1981-06-04 (44 years ago)
Launch vehicle
Unknown
Launch site
Plesetsk Missile And Space Complex (PKMTR)
Object type
Payload
Rocket body
Debris
Shape & HBR
Unknown
Radar Cross Section
Small (<0.1 m²)

Expand to show TLE details & history

TLE from 23 hours ago
0 COSMOS 1275 DEB
1 12694U 81053AN  25170.49626705  .00000426  00000-0  50894-3 0  9994
2 12694  83.0818 357.6465 0115212 157.0623 232.8672 13.62075812173594
Epoch: 2025-06-19T11:54Z
TLE epoch observation values (Epoch: 2025-06-19T11:54:37.473Z)
Latitude
28.6995°
Longitude
-85.18345°
Altitude
1,083.83 km
Speed
7.287 km/s
True Right ascension
00h 05m 44s
True Declination
28° 33' 40"
Sunlit
Object was in daylight at epoch
Visualization orbit readout
Latitude
25.02301°
Longitude
-86.42043°
Altitude
1,084.583 km
Speed
7.286 km/s
Apparent Right ascension
03h 02m 29s
Apparent Declination
-13° 31' 20"
Sunlit
Object is in daylight
Visualization observer readout
Local Sidereal Time
21:43:49
Azimuth
106.935° ESE
Elevation
-0.933°
Doppler factor
1
Orbital elements
Apogee altitude
1,110.615 km
Perigee altitude
940.022 km
Semi-major axis
7,403.456 km
Eccentricity
0.01152
Inclination
83.0818°
RAAN
357.6465°
Arg. of periapsis
157.0623°
True anomaly
Unknown
Mean anomaly
232.8672°
Eccentric anomaly
Unknown
Mean motion
3.40715 °/min
Orbital period
105.66 mins
BSTAR
0.00050894
Loading maneuver chart data...
Loading SW <> Apogee altitude chart data...
Loading historical data...
Loading historical data...
Loading historical data...
Loading historical data...
Loading historical data...
Loading historical data...
Loading historical data...

COSMOS 1275 DEB Visibility forecast

Observer location: undefined°, undefined°

Span
Click to sort rows by Start time (UTC) header in descending order
Start Az.
Max El. time (UTC)
Max El. Az.
Max El.
End time (UTC)
End Az.
12 mins2025-06-20 12:32:40.497Z161.146° S2025-06-20 12:38:40.497Z94.309° ESE36.605°2025-06-20 12:44:40.497Z19.712° NNE
9 mins2025-06-20 14:21:40.497Z241.901° WSW2025-06-20 14:25:40.497Z289.604° WNW24.554°2025-06-20 14:30:40.497Z342.157° N
10 mins2025-06-20 23:37:40.497Z13.391° NNE2025-06-20 23:41:40.497Z64.88° ENE32.31°2025-06-20 23:47:40.497Z145.186° SSE
8 mins2025-06-21 01:24:40.497Z321.476° NNW2025-06-21 01:28:40.497Z269.796° W24.419°2025-06-21 01:32:40.497Z223.042° SW
|